Location: Borovka
(49.7741°N, 14.5280°E)
Time: 11:19:43
(UTC+00:00)

UKube-1 - Visible Passes

Search period start: 15 March 2026 00:00
Search period end: 25 March 2026 00:00
Orbit: 528 x 533 km, 98.4° (Epoch: 14 March)

Date Brightness Start Highest point End Pass type
(mag) Time Alt. Az. Time Alt. Az. Time Alt. Az.
15 Mar ? 03:12:56 10° ENE 03:14:06 11° E 03:15:15 10° ESE visible
16 Mar ? 04:34:37 10° NNE 04:38:29 83° ESE 04:42:19 10° SSW visible
17 Mar ? 04:24:15 10° NNE 04:28:05 62° ESE 04:31:53 10° S visible
18 Mar ? 04:13:54 10° NNE 04:17:38 47° E 04:21:20 10° S visible
19 Mar ? 04:03:34 10° NNE 04:07:09 36° E 04:10:42 10° SSE visible
20 Mar ? 03:53:16 10° NE 03:56:37 28° E 03:59:56 10° SSE visible
21 Mar ? 03:43:01 10° NE 03:46:03 22° E 03:49:03 10° SE visible
22 Mar ? 03:32:52 10° NE 03:35:26 17° E 03:37:59 10° SE visible
23 Mar ? 03:22:54 10° ENE 03:24:46 13° E 03:26:39 10° ESE visible
